TimeEDT,TemperatureF,Dew PointF,Humidity,Sea Level PressureIn,VisibilityMPH,Wind Direction,Wind SpeedMPH,Gust SpeedMPH,PrecipitationIn,Events,Conditions,WindDirDegrees,DateUTC
12:52 AM,69.1,61.0,75,30.19,10.0,SSW,8.1,-,N/A,,Clear,210,2013-08-26 04:52:00
1:52 AM,70.0,61.0,73,30.17,10.0,SW,6.9,-,N/A,,Clear,220,2013-08-26 05:52:00
2:52 AM,69.1,60.1,73,30.15,10.0,SSW,5.8,-,N/A,,Clear,210,2013-08-26 06:52:00
3:52 AM,69.1,60.1,73,30.15,10.0,WSW,6.9,-,N/A,,Clear,240,2013-08-26 07:52:00
4:52 AM,69.1,59.0,70,30.15,10.0,WSW,8.1,-,N/A,,Clear,240,2013-08-26 08:52:00
5:52 AM,68.0,59.0,73,30.15,10.0,SW,8.1,-,N/A,,Clear,230,2013-08-26 09:52:00
6:52 AM,66.0,60.1,81,30.17,10.0,SW,5.8,-,N/A,,Clear,230,2013-08-26 10:52:00
7:52 AM,66.9,59.0,76,30.19,10.0,SW,6.9,-,N/A,,Clear,220,2013-08-26 11:52:00
8:52 AM,71.1,60.1,68,30.17,10.0,SW,10.4,-,N/A,,Clear,230,2013-08-26 12:52:00
9:52 AM,75.9,61.0,60,30.15,10.0,WSW,12.7,-,N/A,,Clear,250,2013-08-26 13:52:00
10:52 AM,78.1,63.0,60,30.17,10.0,West,6.9,-,N/A,,Clear,270,2013-08-26 14:52:00
11:52 AM,82.0,63.0,52,30.14,10.0,WSW,12.7,-,N/A,,Clear,240,2013-08-26 15:52:00
12:52 PM,82.9,64.0,53,30.12,10.0,WSW,10.4,18.4,N/A,,Clear,250,2013-08-26 16:52:00
1:52 PM,84.9,66.0,53,30.09,10.0,SW,9.2,-,N/A,,Clear,230,2013-08-26 17:52:00
2:52 PM,87.1,66.9,51,30.06,10.0,SW,11.5,-,N/A,,Clear,230,2013-08-26 18:52:00
3:52 PM,89.1,66.0,46,30.03,10.0,SW,12.7,-,N/A,,Clear,230,2013-08-26 19:52:00
4:52 PM,89.1,66.0,46,30.02,10.0,WSW,13.8,-,N/A,,Clear,250,2013-08-26 20:52:00
5:52 PM,84.0,66.9,56,30.01,10.0,SSW,6.9,-,N/A,,Clear,210,2013-08-26 21:52:00
6:52 PM,84.0,66.9,56,30.02,10.0,WSW,10.4,-,N/A,,Clear,250,2013-08-26 22:52:00
7:52 PM,82.0,66.0,58,30.01,10.0,SW,8.1,-,N/A,,Clear,230,2013-08-26 23:52:00
8:52 PM,80.1,68.0,67,30.01,10.0,WSW,11.5,-,N/A,,Partly Cloudy,240,2013-08-27 00:52:00
9:52 PM,80.1,68.0,67,30.01,10.0,WSW,13.8,-,N/A,,Mostly Cloudy,240,2013-08-27 01:52:00
10:52 PM,79.0,68.0,69,30.01,10.0,West,10.4,-,N/A,,Overcast,260,2013-08-27 02:52:00
11:52 PM,77.0,66.9,71,30.00,10.0,SW,5.8,-,N/A,,Mostly Cloudy,230,2013-08-27 03:52:00